Вернуться в каталог

CZ-6A DEB

АктивенPO
NORAD 61404·DEBRIS·🇨🇳 China

Запущен Aug 6, 2024 с Taiyuan Satellite Launch Center

Loading…

Ближайшие Пролёты (ближайшие 24 часа)

TLE

СвежийSource: Space-Track

Эпоха: Sep 14, 2026, 10:53 UTC

1 61404U 24140XV  26257.45355288  .00001236  00000-0  26294-3 0  9996
2 61404  89.0868 268.4131 0103724 321.4851  37.8988 14.55111457106848

Отслеживайте CZ-6A DEB в реальном времени с AllMySat

Download on the App Store